Terminal Aerodrome Forecast
Issued by NWS

Home | Current Version | Previous Version | Text Only | Print | Product List | Glossary On
Versions: 1 2 3 4 5 6 7 8 9 10 11 12 13 14 15 16 17 18 19 20 21 22 23
000
FTUS44 KOUN 021725
TAFCSM
TAF
KCSM 021725Z 0218/0318 19014G20KT P6SM SCT100 SCT200
      TEMPO 0218/0220 BKN100
     FM022300 18008KT P6SM FEW100 BKN250
     FM031000 20010KT P6SM BKN070 BKN120=

USA.gov is the U.S. government's official web portal to all federal, state and local government web resources and services.